Notices

What's New in latest Release from April 7th, 2021:

- Updated Glossary, including Speed of Maximum Gust, and Total Hourly Precipitation

- Updated national and regional climate services offices contacts and prices information

- Addition of station inventory lists for 1981-2010, 1971-2000, and 1961-1990 Normals.

If you haven't already, please take our survey and provide feedback about our website: https://eccc.sondage-survey.ca/f/LanguageSelection.aspx?s=442ca660-fcf1-47c0-95a9-59707d6fd709

Hourly Data Report for October 18, 2015

IQALUIT CLIMATE
NUNAVUT

63°44'50.000" N
68°32'40.000" W
33.50 m
2402592
71321
XFB

Download Data

Hourly Data (October 2015)
Hourly Data Report for October 18, 2015
TIME
LST
Temp Definition
°C
Dew Point Definition
°C
Rel Hum Definition
%
Precip. Amount Definition
mm

Wind Dir Definition
10's deg

Wind Spd Definition
km/h
Visibility Definition
km
Stn Press Definition
kPa
Hmdx Definition


Wind Chill Definition


Weather Definition


00:00 -6.7 -10.1 77 0.0 35 7   100.80   -10 LegendNANA
01:00 -6.7 -10.3 76 0.0 36 7   100.83   -10 LegendNANA
02:00 -7.0 -9.9 80 0.0 31 3   100.85   -9 LegendNANA
03:00 -6.7 -10.8 73 0.0 19 5   100.85   -9 LegendNANA
04:00 -7.1 -10.3 78 0.0 14 2   100.87   -8 LegendNANA
05:00 -8.0 -10.8 80 0.0 9 4   100.86   -10 LegendNANA
06:00 -7.5 -10.0 82 0.0 36 5   100.91   -10 LegendNANA
07:00 -7.3 -9.7 83 0.0 36 5   100.93   -10 LegendNANA
08:00 -6.3 -9.7 77 0.0 7 4   100.91   -8 LegendNANA
09:00 -5.3 -10.2 68 0.0 12 3   100.90   -7 LegendNANA
10:00 -4.7 -9.6 69 0.0 12 4   100.91   -6 LegendNANA
11:00 -4.2 -9.7 66 0.0 15 5   100.91   -6 LegendNANA
12:00 -3.8 -10.0 62 0.0 27 4   100.92   -5 LegendNANA
13:00 -3.8 -10.5 60 0.0 23 3   100.92   -5 LegendNANA
14:00 -3.8 -10.1 62 0.0 19 2   100.91   -5 LegendNANA
15:00 -4.0 -9.5 65 0.0 17 5   100.89   -6 LegendNANA
16:00 -4.1 -9.1 68 0.0 18 1   100.87   -5 LegendNANA
17:00 -4.3 -8.2 74 0.0 25 7   100.86   -7 LegendNANA
18:00 -4.3 -8.6 72 0.0 23 8   100.85   -8 LegendNANA
19:00 -4.3 -8.6 72 0.0 15 2   100.83   -5 LegendNANA
20:00 -4.9 -8.3 77 0.0 0 1   100.82   -5 LegendNANA
21:00 -4.3 -8.2 75 0.0 18 4   100.78   -6 LegendNANA
22:00 -4.7 -8.1 77 0.0 21 2   100.76   -6 LegendNANA
23:00 -4.2 -7.9 76 0.0 20 3   100.73   -5 LegendNANA

Notes on Data Quality.

Legend

  • E = Estimated
  • M = Missing
  • NA = Not Available*
  • [empty] = Indicates an unobserved value
Date modified: